Weather observations for the past three days for
Cancun International Airport
| Date | Time (est) | Wind (mph) | Vis. (mi.) | Weather | Sky Cond. | Temperature (ºF) | Relative Humidity | Wind Chill (°F) | Heat Index (°F) | Pressure | Precipitation (in) | ||||||
|---|---|---|---|---|---|---|---|---|---|---|---|---|---|---|---|---|---|
| Air | Dwpt | 6 hour | altimeter (in) | sea level (mb) | 1 hr | 3 hr | 6 hr | ||||||||||
| Max. | Min. | ||||||||||||||||
| 06 | 05:44 | SE 8 | 7.00 | A Few Clouds | FEW015 | 80.6 | 77 | 89% | 87 | 29.93 | 0.0 | ||||||
| 06 | 04:41 | SE 9 | 7.00 | A Few Clouds | FEW015 | 80.6 | 75.2 | 84% | 86 | 29.92 | 0.0 | ||||||
| 06 | 03:49 | SE 8 | 7.00 | A Few Clouds | FEW015 | 80.6 | 75.2 | 84% | 86 | 29.92 | 1013.3 | ||||||
| 06 | 02:40 | SE 10 | 7.00 | A Few Clouds | FEW015 | 80.6 | 75.2 | 84% | 86 | 29.92 | 0.0 | ||||||
| 06 | 01:43 | SE 8 | 7.00 | A Few Clouds | FEW015 | 80.6 | 75.2 | 84% | 86 | 29.94 | 0.0 | ||||||
| 06 | 00:44 | SE 13 | 7.00 | A Few Clouds | FEW015 | 82.4 | 75.2 | 79% | 89 | 29.95 | 1014.3 | ||||||
| 05 | 23:44 | SE 13 | 7.00 | A Few Clouds | FEW015 | 82.4 | 75.2 | 79% | 89 | 29.96 | 0.0 | ||||||
| 05 | 22:48 | SE 10 | 7.00 | A Few Clouds | FEW015 | 82.4 | 75.2 | 79% | 89 | 29.96 | 0.0 | ||||||
| 05 | 21:46 | SE 9 | 7.00 | A Few Clouds | FEW015 | 82.4 | 75.2 | 79% | 89 | 29.94 | 1014.1 | ||||||
| 05 | 20:40 | SE 8 | 7.00 | A Few Clouds | FEW015 | 82.4 | 75.2 | 79% | 89 | 29.93 | 0.0 | ||||||
| 05 | 19:41 | SE 9 | 7.00 | A Few Clouds | FEW015 | 82.4 | 75.2 | 79% | 89 | 29.91 | 0.0 | ||||||
| 05 | 18:40 | SE 13 | 7.00 | Partly Cloudy | SCT015 | 84.2 | 75.2 | 74% | 92 | 29.91 | 1012.8 | ||||||
| 05 | 17:43 | SE 12 | 7.00 | Partly Cloudy | SCT015 | 86 | 75.2 | 70% | 95 | 29.9 | 0.0 | ||||||
| 05 | 16:40 | SE 9 | 7.00 | Partly Cloudy | SCT015 | 86 | 75.2 | 70% | 95 | 29.89 | 0.0 | ||||||
| 05 | 15:42 | SE 15 | 7.00 | Partly Cloudy | SCT015 | 87.8 | 75.2 | 66% | 98 | 29.9 | 1012.5 | ||||||
| 05 | 14:42 | SE 10 | 7.00 | Partly Cloudy | SCT015 | 86 | 77 | 75% | 97 | 29.92 | 0.0 | ||||||
| 05 | 13:47 | S 16 | 7.00 | Partly Cloudy | SCT015 | 87.8 | 75.2 | 66% | 98 | 29.93 | 0.0 | ||||||
| 05 | 12:41 | SE 12 | 7.00 | Partly Cloudy | SCT015 | 87.8 | 77 | 70% | 100 | 29.95 | 1014.3 | ||||||
| 05 | 11:56 | S 8 | 7.00 | Mostly Cloudy | BKN015 | 87.8 | 75.2 | 66% | 98 | 29.95 | 0.0 | ||||||
| 05 | 10:48 | SE 8 | 7.00 | Mostly Cloudy | BKN015 | 87.8 | 77 | 70% | 100 | 29.96 | 0.0 | ||||||
| 05 | 09:52 | E 13 | 7.00 | Mostly Cloudy | BKN015 | 86 | 75.2 | 70% | 95 | 29.95 | 1014.3 | ||||||
| 05 | 08:51 | S 13 | 7.00 | Partly Cloudy | SCT015 | 84.2 | 75.2 | 74% | 92 | 29.94 | 0.0 | ||||||
| 05 | 07:47 | SE 10 | 7.00 | A Few Clouds | FEW015 | 84.2 | 77 | 79% | 94 | 29.92 | 0.0 | ||||||
| 05 | 06:40 | SE 6 | 7.00 | A Few Clouds | FEW015 FEW250 | 78.8 | 75.2 | 89% | 82 | 29.9 | 1012.8 | ||||||
| 05 | 05:41 | Calm | 7.00 | A Few Clouds | FEW015 | 77 | 75.2 | 94% | 78 | 29.89 | 0.0 | ||||||
| 05 | 04:41 | Calm | 7.00 | A Few Clouds | FEW015 | 77 | 75.2 | 94% | 78 | 29.89 | 0.0 | ||||||
| 05 | 03:40 | Calm | 7.00 | A Few Clouds | FEW015 | 78.8 | 75.2 | 89% | 82 | 29.89 | 1012.2 | ||||||
| 05 | 02:41 | S 2 | 7.00 | A Few Clouds | FEW015 | 78.8 | 77 | 94% | 83 | 29.88 | 0.0 | ||||||
| 05 | 01:40 | S 6 | 7.00 | A Few Clouds | FEW015 | 80.6 | 77 | 89% | 87 | 29.91 | 0.0 | ||||||
| 05 | 00:42 | S 5 | 7.00 | A Few Clouds | FEW015 | 80.6 | 77 | 89% | 87 | 29.93 | 1013.6 | ||||||
| 04 | 23:40 | SE 2 | 7.00 | A Few Clouds | FEW015 | 80.6 | 75.2 | 84% | 86 | 29.95 | 0.0 | ||||||
| 04 | 22:40 | SE 6 | 7.00 | A Few Clouds | FEW015 | 80.6 | 77 | 89% | 87 | 29.94 | 0.0 | ||||||
| 04 | 21:43 | SE 7 | 7.00 | A Few Clouds | FEW015TCU | 80.6 | 77 | 89% | 87 | 29.92 | 1013.2 | ||||||
| 04 | 20:43 | SE 6 | 7.00 | A Few Clouds | FEW015TCU | 82.4 | 77 | 84% | 91 | 29.91 | 0.0 | ||||||
| 04 | 19:43 | E 7 | 7.00 | Partly Cloudy | SCT015TCU SCT080 | 82.4 | 78.8 | 89% | 92 | 29.9 | 0.0 | ||||||
| 04 | 18:45 | SE 6 | 7.00 | Mostly Cloudy | SCT015 BKN080 | 84.2 | 78.8 | 84% | 96 | 29.89 | 1012.3 | ||||||
| 04 | 17:42 | E 5 | 7.00 | Mostly Cloudy | SCT015 SCT080 BKN250 | 84.2 | 78.8 | 84% | 96 | 29.88 | 0.0 | ||||||
| 04 | 16:42 | SE 6 | 6.00 | Mostly Cloudy | SCT015CB BKN080 BKN250 | 84.2 | 77 | 79% | 94 | 29.9 | 0.0 | ||||||
| 04 | 15:46 | SE 7 | 6.00 | Mostly Cloudy | FEW015CB SCT080 BKN250 | 82.4 | 78.8 | 89% | 92 | 29.89 | 1012.5 | ||||||
| 04 | 15:08 | SE 8 | 6.00 | Light Rain | SCT015CB BKN080 | 82.4 | 77 | 84% | 91 | 29.92 | 0.0 | ||||||
| 04 | 14:46 | SE 8 | 6.00 | Mostly Cloudy | SCT015CB BKN080 | 84.2 | 77 | 79% | 94 | 29.92 | 0.0 | ||||||
| 04 | 13:45 | SE 14 | 6.00 | A Few Clouds | FEW015CB | 87.8 | 77 | 70% | 100 | 29.91 | 0.0 | ||||||
| 04 | 12:45 | E 7 | 6.00 | Mostly Cloudy | BKN015TCU | 87.8 | 78.8 | 75% | 102 | 29.93 | 1013.7 | ||||||
| 04 | 11:43 | E 6 | 7.00 | Mostly Cloudy | BKN015TCU | 86 | 78.8 | 79% | 99 | 29.95 | 0.0 | ||||||
| 04 | 10:41 | E 6 | 6.00 | Mostly Cloudy | BKN015TCU | 84.2 | 78.8 | 84% | 96 | 29.97 | 0.0 | ||||||
| 04 | 09:44 | NW 3 | 6.00 | Mostly Cloudy | BKN015TCU | 82.4 | 80.6 | 94% | 94 | 29.96 | 1014.8 | ||||||
| 04 | 09:43 | W 3 | 6.00 | Mostly Cloudy | BKN015TCU | 82.4 | 80.6 | 94% | 94 | 29.96 | 0.0 | ||||||
| 04 | 08:42 | NW 3 | 2.50 | Fog/Mist | BKN005 | 80.6 | 80.6 | 100% | 89 | 29.96 | 0.0 | ||||||
| 04 | 08:40 | Calm | 2.50 | Fog/Mist | BKN005 | 80.6 | 80.6 | 100% | 89 | 29.96 | 0.0 | ||||||
| 04 | 07:43 | Calm | 0.50 | Fog | VV006 | 78.8 | 78.8 | 100% | 83 | 29.94 | 0.0 | ||||||
| 04 | 06:49 | NW 5 | 0.50 | Fog | BKN010 BKN250 | 78.8 | 77 | 94% | 83 | 29.93 | 1013.5 | ||||||
| 04 | 06:10 | N 2 | 0.50 | Fog | OVC008 | 77 | 77 | 100% | 78 | 29.93 | 0.0 | ||||||
| 04 | 06:02 | N 2 | 1.00 | Fog/Mist | OVC010 | 77 | 77 | 100% | 78 | 29.92 | 0.0 | ||||||
| 04 | 05:41 | N 2 | 6.00 | Mostly Cloudy | BKN015TCU BKN250 | 77 | 77 | 100% | 78 | 29.92 | 0.0 | ||||||
| 04 | 04:41 | Calm | 7.00 | Mostly Cloudy | SCT015TCU BKN250 | 78.8 | 77 | 94% | 83 | 29.91 | 0.0 | ||||||
| 04 | 03:41 | N 2 | 7.00 | Mostly Cloudy | SCT015TCU BKN250 | 78.8 | 78.8 | 100% | 83 | 29.91 | 1013.1 | ||||||
| 04 | 02:40 | Calm | 7.00 | Mostly Cloudy | FEW015TCU BKN250 | 78.8 | 78.8 | 100% | 83 | 29.92 | 0.0 | ||||||
| 04 | 01:40 | Calm | 7.00 | Mostly Cloudy | SCT015TCU BKN250 | 78.8 | 78.8 | 100% | 83 | 29.94 | 0.0 | ||||||
| 04 | 00:41 | Calm | 7.00 | Partly Cloudy | SCT250 | 78.8 | 78.8 | 100% | 83 | 29.96 | 1014.8 | ||||||
| 03 | 23:41 | SE 2 | 7.00 | Mostly Cloudy | FEW015TCU BKN250 | 80.6 | 78.8 | 94% | 88 | 29.97 | 0.0 | ||||||
| 03 | 22:40 | SE 2 | 7.00 | Partly Cloudy | FEW015TCU SCT250 | 80.6 | 78.8 | 94% | 88 | 29.97 | 0.0 | ||||||
| 03 | 21:47 | Calm | 7.00 | Mostly Cloudy | FEW015 BKN250 | 80.6 | 78.8 | 94% | 88 | 29.95 | 1014.3 | ||||||
| 03 | 20:44 | Calm | 7.00 | Overcast | SCT015 OVC250 | 80.6 | 78.8 | 94% | 88 | 29.93 | 0.0 | ||||||
| 03 | 19:41 | Calm | 7.00 | Overcast | SCT100 OVC250 | 82.4 | 78.8 | 89% | 92 | 29.92 | 0.0 | ||||||
| 03 | 18:43 | S 6 | 7.00 | Overcast | FEW015 SCT100 OVC250 | 82.4 | 80.6 | 94% | 94 | 29.9 | 1012.5 | ||||||
| 03 | 17:40 | S 7 | 7.00 | Overcast | SCT015TCU BKN100 OVC250 | 82.4 | 80.6 | 94% | 94 | 29.89 | 0.0 | ||||||
| 03 | 16:40 | SE 6 | 7.00 | Overcast | SCT015TCU BKN100 OVC250 | 82.4 | 80.6 | 94% | 94 | 29.91 | 0.0 | ||||||
| 03 | 16:15 | Calm | 6.00 | Light Rain | BKN015CB OVC100 | 80.6 | 78.8 | 94% | 88 | 29.91 | 0.0 | ||||||
| 03 | 15:41 | SE 6 | 4.00 | Thunderstorm Rain | BKN015CB OVC100 | 82.4 | 80.6 | 94% | 94 | 29.92 | 1013.2 | 10.25 | |||||
| 03 | 15:17 | SE 9 | 3.00 | Thunderstorm Heavy Rain | OVC006CB | 80.6 | 78.8 | 94% | 88 | 29.93 | 0.0 | ||||||
| 03 | 15:03 | S 7 | 2.00 | Thunderstorm Heavy Rain | OVC006CB | 84.2 | 78.8 | 84% | 96 | 29.92 | 0.0 | ||||||
| 03 | 14:43 | S 12 | 5.00 | Thunderstorm | BKN015CB OVC250 | 86 | 78.8 | 79% | 99 | 29.93 | 0.0 | ||||||
| 03 | 14:32 | SE 16 | 5.00 | Thunderstorm | BKN015CB OVC250 | 84.2 | 78.8 | 84% | 96 | 29.93 | 0.0 | ||||||
| 03 | 13:43 | SE 16 | 7.00 | Overcast | SCT015TCU OVC250 | 87.8 | 78.8 | 75% | 102 | 29.92 | 0.0 | ||||||
| 03 | 12:42 | S 9 | 7.00 | Overcast | SCT015TCU OVC250 | 86 | 77 | 75% | 97 | 29.95 | 1014.6 | ||||||
| 03 | 11:42 | SE 12 | 6.00 | Overcast | SCT015TCU OVC250 | 89.6 | 78.8 | 71% | 105 | 29.97 | 0.0 | ||||||
| 03 | 10:43 | SE 15 | 7.00 | Overcast | SCT015TCU OVC250 | 87.8 | 78.8 | 75% | 102 | 29.96 | 0.0 | ||||||
| 03 | 09:44 | SE 13 | 7.00 | Overcast | SCT015TCU OVC250 | 86 | 77 | 75% | 97 | 29.97 | 1014.9 | ||||||
| 03 | 08:45 | SE 6 | 7.00 | Mostly Cloudy | SCT015TCU BKN080 BKN250 | 84.2 | 77 | 79% | 94 | 29.96 | 0.0 | ||||||
| 03 | 07:41 | SE 3 | 7.00 | Overcast | BKN080 OVC250 | 82.4 | 78.8 | 89% | 92 | 29.94 | 0.0 | ||||||
| Date | Time (est) | Wind (mph) | Vis. (mi.) | Weather | Sky Cond. | Air | Dwpt | Max. | Min. | Relative Humidity | Wind Chill (°F) | Heat Index (°F) | altimeter (in) | sea level (mb) | 1 hr | 3 hr | 6 hr |
| 6 hour | |||||||||||||||||
| Temperature (ºF) | Pressure | Precipitation (in) | |||||||||||||||